This is the latest recevied weather packets stored in our database for station/object N4TLC. If no packets are shown the sender has not sent any weather packets the latest 10 day(s).
| Time | Temp. | Humidity | Pressure | Rain* | Wind** | Luminosity | Snow |
|---|---|---|---|---|---|---|---|
| 1777230796 | 17.78° C | 66% | 1018.4 hPa | 0 mm | - | 1119 W/m² | - |
| 1777230491 | 17.78° C | 66% | 1018.4 hPa | 0 mm | - | 283 W/m² | - |
| 1777230188 | 17.22° C | 66% | 1018.5 hPa | 0 mm | - | 1038 W/m² | - |
| 1777229884 | 17.22° C | 67% | 1018.2 hPa | 0 mm | - | 987 W/m² | - |
| 1777229581 | 17.78° C | 65% | 1018 hPa | 0 mm | - | 312 W/m² | - |
| 1777229278 | 17.78° C | 67% | 1018.2 hPa | 0 mm | - | 503 W/m² | - |
| 1777228975 | 17.22° C | 67% | 1018 hPa | 0 mm | - | 491 W/m² | - |
| 1777228671 | 18.33° C | 65% | 1018.1 hPa | 0 mm | - | 474 W/m² | - |
| 1777228367 | 17.78° C | 66% | 1018.2 hPa | 0 mm | - | 1178 W/m² | - |
| 1777228063 | 17.22° C | 69% | 1018.4 hPa | 0 mm | - | 1301 W/m² | - |
| 1777227762 | 17.22° C | 68% | 1018.4 hPa | 0 mm | - | 392 W/m² | - |
| 1777227458 | 17.78° C | 67% | 1018.2 hPa | 0 mm | - | 443 W/m² | - |
| 1777227154 | 17.78° C | 68% | 1018.2 hPa | 0 mm | - | 355 W/m² | - |
| 1777226851 | 17.78° C | 67% | 1018.2 hPa | 0 mm | - | 1123 W/m² | - |
| 1777226550 | 17.78° C | 68% | 1018.1 hPa | 0 mm | - | 1094 W/m² | - |
| 1777226246 | 17.78° C | 67% | 1018 hPa | 0 mm | - | 1067 W/m² | - |
| 1777225942 | 17.78° C | 69% | 1018.2 hPa | 0 mm | - | 1103 W/m² | - |
| 1777225638 | 17.22° C | 69% | 1018.2 hPa | 0 mm | - | 1094 W/m² | - |
| 1777225335 | 16.67° C | 70% | 1018.1 hPa | 0 mm | - | 1176 W/m² | - |
| 1777225032 | 16.67° C | 73% | 1018.1 hPa | 0 mm | - | 1234 W/m² | - |
| 1777224729 | 16.67° C | 70% | 1018.2 hPa | 0 mm | - | 299 W/m² | - |
| 1777224424 | 17.22° C | 71% | 1018.1 hPa | 0 mm | - | 1030 W/m² | - |
| 1777224120 | 16.67° C | 73% | 1018.1 hPa | 0 mm | - | 1191 W/m² | - |
| 1777223817 | 16.11° C | 73% | 1018.2 hPa | 0 mm | - | 232 W/m² | - |
| 1777223513 | 16.67° C | 71% | 1018.4 hPa | 0 mm | - | 327 W/m² | - |
* Rain latest hour (hover to see other rain measurements)
** Current wind speed in m/s (hover to see current wind gust speed)